Date String (YYYY-MM-DD hh:mm:ss) UTC,Instrument flags,Ambient pressure (hPa),Sample flow (lpm),Bypass flow (lpm),Sample temperature (°C),Ambient temperature (°C),ASC tube jacket temperature (°C),LED temperature (°C),Box temperature (°C),Sample RH (%),Span deviation,Mass concentration (μg/m³),Mass concentration (μg/m³),Mass concentration (μg/m³)
DateTimeUTC,F1_M11,P_M11,Q1_M11,Q2_M11,T1_M11,T2_M11,T3_M11,T4_M11,T5_M11,U1_M11,ZSPAN_M11,X0_M11,X2_M11,X1_M11
2023-04-08 15:00:00,,0829.9,5.01,0.00,22.7,21.2,00.0,30.9,24.3,12.2,0000.0,0010.78,0003.70,0002.30
2023-04-08 15:01:00,,0829.9,5.00,0.00,22.7,21.2,00.0,30.9,24.3,11.8,0000.0,0010.85,0003.70,0002.30
2023-04-08 15:02:00,,0829.8,4.99,0.00,22.7,21.2,00.0,31.0,24.3,12.2,0000.0,0010.88,0003.73,0002.32
2023-04-08 15:03:00,,0829.9,5.00,0.00,22.7,21.2,00.0,31.0,24.3,12.5,0000.0,0011.08,0003.81,0002.33
2023-04-08 15:04:00,,0829.8,5.01,0.00,22.7,21.2,00.0,31.0,24.3,11.8,0000.0,0011.10,0003.86,0002.34
2023-04-08 15:05:00,,0829.8,5.01,0.00,22.7,21.2,00.0,31.0,24.3,12.1,0000.0,0011.38,0003.94,0002.36
2023-04-08 15:06:00,,0829.8,4.99,0.00,22.7,21.3,00.0,31.0,24.3,12.4,0000.0,0010.50,0003.97,0002.38
2023-04-08 15:07:00,,0829.8,4.99,0.00,22.8,21.3,00.0,31.0,24.3,12.6,0000.0,0009.91,0004.00,0002.38
2023-04-08 15:08:00,,0829.8,5.00,0.00,22.8,21.3,00.0,31.0,24.4,12.5,0000.0,0009.81,0003.98,0002.39
2023-04-08 15:09:00,,0829.8,5.01,0.00,22.8,21.3,00.0,31.0,24.4,12.4,0000.0,0009.79,0003.98,0002.41
2023-04-08 15:10:00,,0829.8,5.00,0.00,22.8,21.3,00.0,31.0,24.4,12.4,0000.0,0009.96,0003.94,0002.42
2023-04-08 15:11:00,,0829.8,5.00,0.00,22.8,21.4,00.0,31.0,24.4,12.5,0000.0,0010.19,0003.97,0002.44
2023-04-08 15:12:00,,0829.8,4.99,0.00,22.8,21.4,00.0,31.0,24.4,12.9,0000.0,0009.96,0004.00,0002.47
2023-04-08 15:13:00,,0829.8,5.01,0.00,22.8,21.4,00.0,31.0,24.4,13.8,0000.0,0009.68,0004.01,0002.46
2023-04-08 15:14:00,,0829.8,5.01,0.00,22.8,21.4,00.0,31.1,24.5,14.3,0000.0,0009.77,0004.01,0002.45
2023-04-08 15:15:00,,0829.9,4.99,0.00,22.8,21.4,00.0,31.1,24.5,14.1,0000.0,0009.64,0003.98,0002.45
2023-04-08 15:16:00,,0829.9,4.99,0.00,22.8,21.4,00.0,31.1,24.5,13.7,0000.0,0009.19,0003.92,0002.42
2023-04-08 15:17:00,,0829.8,5.01,0.00,22.9,21.4,00.0,31.1,24.5,13.9,0000.0,0008.92,0003.90,0002.42
2023-04-08 15:18:00,,0829.8,5.01,0.00,22.9,21.5,00.0,31.1,24.5,14.5,0000.0,0008.89,0003.89,0002.41
2023-04-08 15:19:00,,0829.8,4.99,0.00,22.9,21.5,00.0,31.1,24.5,15.6,0000.0,0009.46,0003.88,0002.41
2023-04-08 15:20:00,,0829.8,5.01,0.00,22.9,21.5,00.0,31.1,24.5,15.0,0000.0,0009.67,0003.88,0002.42
2023-04-08 15:21:00,,0829.8,5.01,0.00,22.9,21.5,00.0,31.1,24.5,14.9,0000.0,0009.60,0003.89,0002.42
2023-04-08 15:22:00,,0829.8,5.00,0.00,22.9,21.5,00.0,31.1,24.5,14.5,0000.0,0009.60,0003.91,0002.40
2023-04-08 15:23:00,,0829.8,5.00,0.00,22.9,21.5,00.0,31.1,24.5,14.3,0000.0,0010.01,0003.96,0002.38
2023-04-08 15:24:00,,0829.8,5.00,0.00,22.9,21.5,00.0,31.1,24.5,13.8,0000.0,0010.10,0003.98,0002.37
2023-04-08 15:25:00,,0829.8,5.01,0.00,22.9,21.5,00.0,31.2,24.6,13.9,0000.0,0009.76,0003.90,0002.35
2023-04-08 15:26:00,,0829.8,5.01,0.00,23.0,21.5,00.0,31.2,24.6,13.7,0000.0,0009.73,0003.84,0002.33
2023-04-08 15:27:00,,0829.9,5.01,0.00,23.0,21.5,00.0,31.2,24.6,13.5,0000.0,0009.84,0003.85,0002.33
2023-04-08 15:28:00,,0829.8,4.99,0.00,23.0,21.6,00.0,31.2,24.6,13.7,0000.0,0009.85,0003.86,0002.33
2023-04-08 15:29:00,,0829.8,4.99,0.00,23.0,21.6,00.0,31.2,24.6,13.0,0000.0,0010.11,0003.89,0002.33
2023-04-08 15:30:00,,0829.9,5.01,0.00,23.0,21.6,00.0,31.2,24.6,12.2,0000.0,0010.64,0003.94,0002.34
2023-04-08 15:31:00,,0829.8,5.00,0.00,23.0,21.6,00.0,31.2,24.6,13.2,0000.0,0010.51,0003.95,0002.33
2023-04-08 15:32:00,,0829.8,4.99,0.00,23.0,21.6,00.0,31.2,24.6,13.5,0000.0,0010.35,0003.88,0002.31
2023-04-08 15:33:00,,0829.9,4.99,0.00,23.0,21.6,00.0,31.2,24.7,12.7,0000.0,0010.14,0003.86,0002.30
2023-04-08 15:34:00,,0829.9,4.99,0.00,23.0,21.6,00.0,31.2,24.7,13.0,0000.0,0009.83,0003.79,0002.31
2023-04-08 15:35:00,,0829.8,5.00,0.00,23.0,21.6,00.0,31.3,24.7,13.3,0000.0,0010.37,0003.76,0002.31
2023-04-08 15:36:00,,0829.9,5.00,0.00,23.0,21.6,00.0,31.3,24.7,13.7,0000.0,0010.91,0003.78,0002.32
2023-04-08 15:37:00,,0829.9,5.00,0.00,23.1,21.6,00.0,31.3,24.7,13.8,0000.0,0011.12,0003.83,0002.34
2023-04-08 15:38:00,,0829.9,5.01,0.00,23.1,21.6,00.0,31.3,24.7,13.9,0000.0,0011.71,0003.85,0002.34
2023-04-08 15:39:00,,0829.9,4.99,0.00,23.1,21.7,00.0,31.3,24.7,13.8,0000.0,0012.11,0003.84,0002.33
2023-04-08 15:40:00,,0829.9,5.00,0.00,23.1,21.7,00.0,31.3,24.7,13.9,0000.0,0011.83,0003.79,0002.33
2023-04-08 15:41:00,,0829.9,5.00,0.00,23.1,21.7,00.0,31.3,24.7,13.9,0000.0,0011.05,0003.74,0002.31
2023-04-08 15:42:00,,0830.0,5.01,0.00,23.1,21.7,00.0,31.3,24.7,13.7,0000.0,0010.87,0003.74,0002.30
2023-04-08 15:43:00,,0829.9,5.00,0.00,23.1,21.7,00.0,31.3,24.7,13.8,0000.0,0010.92,0003.85,0002.31
2023-04-08 15:44:00,,0829.9,4.99,0.00,23.1,21.7,00.0,31.3,24.8,13.4,0000.0,0011.12,0003.88,0002.31
2023-04-08 15:45:00,,0829.9,5.00,0.00,23.1,21.7,00.0,31.3,24.8,13.4,0000.0,0011.58,0003.88,0002.31
2023-04-08 15:46:00,,0829.9,4.99,0.00,23.1,21.7,00.0,31.3,24.8,13.6,0000.0,0011.23,0003.84,0002.30
2023-04-08 15:47:00,,0829.9,5.00,0.00,23.1,21.7,00.0,31.3,24.8,13.5,0000.0,0010.42,0003.82,0002.31
2023-04-08 15:48:00,,0829.9,5.00,0.00,23.1,21.7,00.0,31.4,24.8,13.8,0000.0,0011.07,0003.81,0002.30
2023-04-08 15:49:00,,0829.9,5.01,0.00,23.1,21.7,00.0,31.4,24.8,13.7,0000.0,0010.77,0003.80,0002.31
2023-04-08 15:50:00,,0829.9,5.01,0.00,23.2,21.7,00.0,31.4,24.8,13.5,0000.0,0010.27,0003.83,0002.34
2023-04-08 15:51:00,,0829.9,4.99,0.00,23.2,21.8,00.0,31.4,24.8,14.0,0000.0,0010.36,0003.86,0002.35
2023-04-08 15:52:00,,0829.9,5.00,0.00,23.2,21.8,00.0,31.4,24.9,14.1,0000.0,0010.15,0003.84,0002.34
2023-04-08 15:53:00,,0829.9,5.01,0.00,23.2,21.8,00.0,31.4,24.9,14.3,0000.0,0009.95,0003.83,0002.36
2023-04-08 15:54:00,,0829.9,5.01,0.00,23.2,21.8,00.0,31.4,24.8,14.0,0000.0,0010.24,0003.75,0002.36
2023-04-08 15:55:00,,0829.9,4.99,0.00,23.2,21.8,00.0,31.4,24.8,14.3,0000.0,0011.41,0003.77,0002.37
2023-04-08 15:56:00,,0829.9,4.99,0.00,23.2,21.8,00.0,31.4,24.8,14.3,0000.0,0011.53,0003.80,0002.39
2023-04-08 15:57:00,,0829.9,5.00,0.00,23.2,21.8,00.0,31.4,24.8,14.1,0000.0,0011.65,0003.87,0002.42
2023-04-08 15:58:00,,0829.9,4.99,0.00,23.2,21.8,00.0,31.4,24.8,14.2,0000.0,0011.96,0003.91,0002.45
2023-04-08 15:59:00,,0829.9,5.00,0.00,23.2,21.8,00.0,31.5,24.8,13.7,0000.0,0011.44,0003.92,0002.49
